Total_Precipitation_Accumulation
0.04 0.01 0.02 0.02 0.06 0.07 0.06 0.08 0.10 0.12 0.11 0.10 0.10 0.10 0.11 0.10 0.08 0.07 0.06 0.09 0.12 0.18 0.22 0.22 0.18 0.16 0.15 0.15 0.11 0.09 0.07 0.07 0.09 0.10 0.13 0.16 0.17 0.16 0.16 0.17 0.20 0.20 0.11
0.03 0.00 0.01 0.01 0.03 0.05 0.06 0.08 0.09 0.11 0.12 0.12 0.13 0.14 0.14 0.10 0.07 0.07 0.07 0.10 0.15 0.19 0.19 0.19 0.16 0.13 0.13 0.10 0.07 0.06 0.06 0.07 0.11 0.16 0.19 0.22 0.26 0.22 0.20 0.19 0.24 0.29 0.19
0.02 0.00 0.01 0.01 0.02 0.04 0.06 0.09 0.09 0.09 0.10 0.11 0.12 0.12 0.10 0.08 0.07 0.06 0.06 0.09 0.14 0.15 0.13 0.10 0.07 0.07 0.06 0.05 0.04 0.05 0.06 0.09 0.14 0.23 0.43 0.38 0.31 0.22 0.21 0.19 0.17 0.15 0.18
0.02 0.01 0.00 0.01 0.02 0.03 0.04 0.06 0.10 0.10 0.09 0.09 0.09 0.09 0.08 0.07 0.07 0.07 0.07 0.09 0.11 0.10 0.07 0.04 0.04 0.03 0.03 0.02 0.03 0.04 0.06 0.10 0.19 0.38 0.74 0.62 0.41 0.28 0.24 0.21 0.18 0.15 0.16
0.02 0.01 0.02 0.01 0.03 0.05 0.04 0.04 0.08 0.10 0.10 0.09 0.09 0.09 0.10 0.09 0.08 0.08 0.09 0.10 0.09 0.09 0.09 0.09 0.06 0.03 0.02 0.02 0.03 0.05 0.09 0.14 0.28 0.59 1.02 0.92 0.71 0.48 0.31 0.27 0.29 0.23 0.20
0.02 0.01 0.01 0.02 0.03 0.06 0.06 0.05 0.06 0.08 0.11 0.12 0.12 0.12 0.11 0.11 0.09 0.07 0.08 0.09 0.09 0.10 0.12 0.14 0.10 0.04 0.03 0.03 0.04 0.07 0.11 0.18 0.34 0.67 1.11 1.13 0.79 0.49 0.35 0.33 0.33 0.28 0.23
0.03 0.02 0.01 0.04 0.05 0.06 0.07 0.08 0.09 0.07 0.10 0.13 0.14 0.12 0.10 0.10 0.09 0.09 0.09 0.08 0.10 0.13 0.15 0.12 0.07 0.02 0.02 0.03 0.05 0.08 0.14 0.24 0.41 0.86 1.17 1.05 0.92 0.55 0.40 0.37 0.37 0.31 0.23
0.07 0.04 0.03 0.06 0.06 0.08 0.10 0.11 0.14 0.13 0.12 0.14 0.14 0.11 0.10 0.08 0.09 0.11 0.10 0.10 0.12 0.17 0.15 0.07 0.02 0.01 0.01 0.02 0.04 0.08 0.16 0.21 0.34 0.81 1.14 0.86 0.69 0.46 0.35 0.34 0.34 0.29 0.24
0.10 0.10 0.07 0.05 0.06 0.09 0.12 0.12 0.14 0.16 0.15 0.13 0.13 0.13 0.13 0.13 0.13 0.14 0.13 0.12 0.15 0.16 0.11 0.04 0.01 0.01 0.01 0.02 0.03 0.05 0.11 0.18 0.36 0.57 0.63 0.58 0.49 0.37 0.28 0.22 0.18 0.16 0.15
0.18 0.20 0.14 0.09 0.08 0.06 0.05 0.09 0.11 0.15 0.17 0.13 0.10 0.11 0.13 0.12 0.11 0.11 0.10 0.10 0.11 0.11 0.08 0.04 0.02 0.01 0.01 0.01 0.01 0.03 0.08 0.13 0.23 0.43 0.60 0.49 0.35 0.32 0.31 0.22 0.14 0.11 0.10
0.25 0.33 0.16 0.10 0.10 0.09 0.05 0.05 0.07 0.11 0.13 0.10 0.06 0.07 0.07 0.16 0.21 0.17 0.11 0.10 0.09 0.08 0.07 0.05 0.03 0.02 0.01 0.01 0.01 0.02 0.04 0.08 0.22 0.46 0.61 0.51 0.35 0.34 0.30 0.23 0.15 0.11 0.10
0.28 0.33 0.22 0.13 0.09 0.13 0.08 0.06 0.06 0.05 0.05 0.07 0.12 0.08 0.13 0.30 0.37 0.27 0.22 0.14 0.10 0.09 0.07 0.06 0.04 0.03 0.02 0.02 0.01 0.02 0.02 0.06 0.23 0.44 0.48 0.39 0.34 0.35 0.37 0.28 0.18 0.13 0.12
0.37 0.30 0.30 0.26 0.20 0.27 0.16 0.14 0.14 0.13 0.16 0.17 0.24 0.23 0.30 0.37 0.31 0.34 0.37 0.22 0.15 0.11 0.11 0.09 0.05 0.04 0.03 0.04 0.04 0.03 0.05 0.07 0.15 0.26 0.30 0.31 0.34 0.40 0.44 0.37 0.29 0.22 0.20
0.51 0.41 0.45 0.46 0.37 0.33 0.30 0.31 0.26 0.22 0.21 0.24 0.32 0.27 0.41 0.48 0.46 0.43 0.44 0.33 0.29 0.26 0.24 0.17 0.11 0.09 0.07 0.06 0.05 0.06 0.08 0.08 0.12 0.17 0.26 0.32 0.36 0.45 0.51 0.49 0.41 0.33 0.29
0.63 0.69 0.61 0.56 0.50 0.51 0.55 0.52 0.42 0.33 0.27 0.28 0.37 0.37 0.41 0.45 0.48 0.52 0.46 0.43 0.38 0.39 0.35 0.25 0.23 0.21 0.15 0.17 0.14 0.12 0.13 0.12 0.13 0.17 0.27 0.36 0.38 0.46 0.56 0.57 0.50 0.43 0.43
0.59 0.70 0.81 0.78 0.74 0.71 0.71 0.65 0.54 0.45 0.46 0.45 0.46 0.48 0.44 0.51 0.65 0.68 0.65 0.65 0.62 0.61 0.64 0.50 0.43 0.42 0.31 0.29 0.29 0.29 0.25 0.23 0.24 0.27 0.35 0.40 0.41 0.44 0.54 0.62 0.62 0.61 0.60
0.74 0.82 0.97 1.02 1.02 0.99 0.99 0.96 0.82 0.71 0.65 0.66 0.71 0.74 0.61 0.63 0.80 0.83 0.90 0.91 0.88 0.88 0.90 0.88 0.77 0.69 0.60 0.51 0.46 0.41 0.36 0.36 0.37 0.40 0.46 0.51 0.50 0.50 0.52 0.57 0.63 0.68 0.68
0.73 0.85 0.87 1.00 1.06 1.17 1.30 1.33 1.11 1.06 1.01 0.98 0.91 0.92 0.82 0.83 0.96 1.10 1.15 1.14 1.11 1.09 1.16 1.20 1.12 0.94 0.82 0.72 0.68 0.60 0.55 0.52 0.48 0.52 0.60 0.71 0.75 0.72 0.69 0.65 0.65 0.67 0.69
0.65 0.87 1.00 1.11 1.28 1.30 1.39 1.52 1.48 1.48 1.43 1.34 1.32 1.28 1.33 1.36 1.31 1.38 1.45 1.49 1.46 1.49 1.49 1.42 1.36 1.15 1.07 1.01 0.90 0.81 0.69 0.65 0.64 0.60 0.65 0.68 0.72 0.75 0.76 0.71 0.67 0.65 0.70
0.78 0.95 1.10 1.26 1.50 1.75 1.75 1.81 1.76 1.92 2.07 2.07 2.07 2.00 1.90 1.91 1.94 1.99 1.91 1.88 1.85 1.87 1.76 1.69 1.65 1.44 1.27 1.19 0.97 0.87 0.79 0.75 0.74 0.70 0.66 0.62 0.60 0.58 0.58 0.61 0.66 0.65 0.67
1.24 1.27 1.33 1.35 1.54 1.75 2.03 2.28 2.41 2.49 2.69 2.78 2.83 2.94 2.93 2.87 2.92 2.90 2.78 2.61 2.41 2.25 2.09 1.95 1.78 1.60 1.41 1.29 1.17 0.96 0.75 0.63 0.65 0.63 0.61 0.61 0.60 0.57 0.56 0.56 0.54 0.52 0.56
1.52 1.50 1.56 1.62 1.81 2.06 2.42 2.80 3.19 3.33 3.46 3.48 3.49 3.66 3.77 3.76 3.81 3.86 3.69 3.45 3.24 2.87 2.42 2.05 1.83 1.71 1.53 1.42 1.31 1.19 0.89 0.68 0.56 0.45 0.49 0.53 0.54 0.55 0.52 0.49 0.47 0.47 0.48
1.64 1.71 1.77 2.01 2.36 2.76 3.19 3.66 4.04 4.28 4.30 4.23 4.00 3.99 4.11 4.12 4.14 4.24 4.17 3.85 3.39 2.84 2.34 2.08 1.94 1.80 1.65 1.52 1.35 1.27 1.09 0.88 0.65 0.46 0.40 0.38 0.40 0.38 0.37 0.37 0.37 0.39 0.41
1.64 1.81 1.92 2.20 2.70 3.13 3.56 4.14 4.59 4.80 4.97 5.05 4.84 4.54 4.33 4.17 4.07 3.97 3.79 3.36 2.90 2.51 2.22 2.06 1.90 1.69 1.61 1.46 1.33 1.12 0.97 0.85 0.73 0.55 0.41 0.32 0.28 0.24 0.23 0.23 0.24 0.26 0.29
1.59 1.62 1.72 2.10 2.67 3.38 4.03 4.53 4.97 5.26 5.32 5.25 4.91 4.56 4.17 3.80 3.40 3.08 2.78 2.49 2.30 2.09 1.86 1.67 1.52 1.36 1.20 1.08 1.01 0.93 0.82 0.73 0.63 0.54 0.45 0.36 0.31 0.27 0.24 0.23 0.23 0.23 0.24
1.32 1.47 1.71 2.05 2.72 3.45 4.02 4.47 4.80 5.09 5.04 4.73 4.30 3.84 3.55 3.19 2.76 2.40 2.23 1.99 1.79 1.57 1.34 1.18 1.06 0.97 0.90 0.86 0.81 0.73 0.67 0.62 0.57 0.54 0.48 0.38 0.32 0.29 0.26 0.24 0.24 0.25 0.26